星链-38007(STARLINK-38007)

导读

**STARLINK-38007(NORAD 69723)** 是SpaceX星链星座的组网卫星,属于V2 Mini改进型宽带通信卫星,2026年6月12日随猎鹰9号火箭执行Starlink 10-54任务,从佛罗里达州卡纳维拉尔太空军基地SLC-40发射台升空,部署至近地轨道,承担全球高速卫星互联网接入服务。本次任务共发射29颗同型卫星,助推器B1080完成第27次飞行并成功回收。截至2026年7月初,该卫星处于正常在轨运行状态,支撑星链星座超万颗活跃卫星的全球服务能力。

基本信息
目录编号:
69723
目录名称:
STARLINK-38007
国际标识:
2026-147V
轨道中心:
EARTH
卫星名称:
星链-38007
卫星全名:
星链-38007(STARLINK-38007)
卫星状态:
在轨 (已飞行68 天)
发射日期:
2026-06-28 UTC
国别 :
美国 (US)
星等 :
--
轨道信息
数据来源 国际轨道数据 AOE轨道数据
星历时间 2026-09-04T10:24:20+0800
12小时前
查看轨道信息
2026-08-29T23:00:00+0800
6天前
查看轨道信息
半长轴 6843.662km 6843.707km
偏心率 0.0003748 0.0001317
轨道倾角 97.284° 97.285°
近地点辐角 119.345° 86.973°
升交点赤经 283.743° 278.351°
平近点角 240.817° 307.431°
近地点 462.959km 464.668km
远地点 468.091km 466.472km
周期 93.906分钟 93.907分钟
每日圈数 15.334513 15.334363
详细信息
固有亮度:
5
最大亮度:
2.5
卫星平台:
Starlink V1.0
覆盖范围:
全球
运营商:
太空探索技术公司
运营商所在国:
美国
制造商(研发单位):
太空探索技术公司
制造商所在国:
美国
使用方式:
暂无
卫星简介
Starlink 计划是 SpaceX 推出的全球卫星互联网项目,通过发射低轨道卫星,为全球尤其是偏远地区提供高速、低延迟的互联网服务。自 2019 年起,Starlink 已部署数千颗卫星,旨在缩小全球数字鸿沟,推动互联网普及。该项目还为军事、航空等行业提供通信支持,带来广泛经济效益。
2D轨道图
3D轨道图
轨道高度分析图
轨道倾角分析图
轨道综合分析图
查看轨道综合分析图
交会数据列表
事件ID 空间交会对象 最接近时刻(TCA) 交会距离 交会风险概率(CRP) 交会风险指数(CRI) 操作
CDM_260905-190705-401106-972321
2026-09-05T
19:07:46+0000
1.581 km
极远距离
5.644083E-6 低风险 0.5
CDM_260905-093004-813306-972321
2026-09-05T
09:30:20+0000
1.769 km
极远距离
3.735453E-6 低风险 0.46
CDM_260906-090506-001606-972321
2026-09-06T
09:05:20+0000
1.563 km
极远距离
3.451565E-6 低风险 0.46
CDM_260905-141504-848506-972321
2026-09-05T
14:15:49+0000
1.967 km
极远距离
2.929639E-6 低风险 0.44
CDM_260830-233006-418206-972322
2026-08-30T
23:30:37+0000
2.203 km
极远距离
1.84538E-6 低风险 0.4
CDM_260831-001706-418206-972321
2026-08-31T
00:17:34+0000
2.408 km
极远距离
1.540625E-6 低风险 0.39
CDM_260905-222104-784006-972321
2026-09-05T
22:21:14+0000
2.710 km
极远距离
1.527715E-6 低风险 0.39
CDM_260903-161106-534506-972322
2026-09-03T
16:11:34+0000
2.759 km
极远距离
1.492788E-6 低风险 0.38
CDM_260905-135205-893206-972321
2026-09-05T
13:52:28+0000
2.586 km
极远距离
1.417569E-6 低风险 0.38
CDM_260905-010106-533906-972321
2026-09-05T
01:01:50+0000
2.891 km
极远距离
1.396386E-6 低风险 0.38